Location: C.E.K. Mees Observatory
(42.7003°N, 77.4088°W)
Time: 04:40:37
(UTC-04:00)

Vanguard 3 - Pass Details

Date: 27 June 2018
Orbit: 508 x 3264 km, 33.3° (Epoch: 24 September)

Event Time Altitude Azimuth Distance (km) Brightness Sun altitude
Rises 04:56:23 0° 255° (WSW) 3,006 - -6.3°
Exits shadow 04:57:37 - 250° (WSW) 2,572 9.1 -6.1°
Reaches altitude 10° 04:58:30 10° 246° (WSW) 2,286 8.8 -6.0°
Maximum altitude 05:03:20 36° 180° (S) 1,568 8.3 -5.3°
Drops below altitude 10° 05:11:07 10° 118° (ESE) 3,714 10.9 -4.2°
Sets 05:15:32 0° 112° (ESE) 5,201 11.8 -3.5°
